Find Starlink 33671

NORAD ID: 63320 Int'l Des: 2025-057 Owner: SPXS Country: US Constellation: starlink operational
LEOCIRCULAR

当前视图

正在加载3D地球...

About Starlink 33671

Starlink 33671 (NORAD 63320) is a starlink constellation satellite (v2 mini) launched Mar 18, 2025 by SPXS of US. It operates in LEO, CIRCULAR orbit with a mass of 575.00 kg.

即将过境

Passes for default location (London). Set your location on the main map for personalized predictions.

高度历史

Loading altitude history...

两行轨道根数

1 63320U 25057P 26264.28188655 .00008362 00000-0 31299-3 0 9992
2 63320 43.0008 355.6157 0000813 254.7606 105.3155 15.27585030 85813
Epoch: Sep 21, 2026 • Age: 17 hours

当前状态

高度 483.0 km
远地点 / 近地点 N/A
速度 7.63 km/s
星下点 22.72°N, 14.5°E
发射日期 Mar 18, 2025
运行时间 1.5 years
类型 internet

技术详情

分类 Payload
质量 575.00 kg
干质量 530.00 kg
长度 0.30 m
跨度 29.00 m
形状 ? Box + pan
制造商 SPXS
平台类型 Starlink V2MO
阶段状态 In Orbit
所有者/国家 SPXS/US

Most Searched